Weather History for Greenville, MS

Change the Weather History Date:

Saturday, June 16, 2012

  Actual Average Record
Temperature  
Mean Temperature 81 °F 79 °F  
Max Temperature 91 °F 89 °F 101 °F (1936)
Min Temperature 71 °F 69 °F 58 °F (1933)
Degree Days  
Heating Degree Days 0 0  
Month to date heating degree days 0 0  
Since 1 June heating degree days 0 0  
Since 1 July heating degree days 2118 2774  
Cooling Degree Days 16 14  
Month to date cooling degree days 183 203  
Year to date cooling degree days 708 525  
Since 1 June cooling degree days 183 203  
Growing Degree Days 30 (Base 50)    
Moisture  
Dew Point 70 °F    
Average Humidity 73    
Maximum Humidity 93    
Minimum Humidity 52    
Precipitation  
Precipitation T in 0.13 in 2.68 in (1976)
Month to date precipitation 4.81 1.85  
Year to date precipitation 20.60 26.11  
Sea Level Pressure  
Sea Level Pressure 30.09 in    
Wind  
Wind Speed 5 mph (SE)    
Max Wind Speed 20 mph    
Max Gust Speed 24 mph    
Visibility 10 miles    
Events      
T = Trace of Precipitation, MM = Missing Value Source: NWS Daily Summary

Daily Weather History Graph

Daily Weather History Graph

Search for Another Location

Airport:

Trip Planner

Search our weather history database for the weather conditions in past years. The results will help you decide how hot, cold, wet, or windy it might be!

Date:

Astronomy

Jun. 16, 2012 Rise Set
Actual Time 5:53 AM CDT 8:15 PM CDT
Civil Twilight 5:24 AM CDT 8:44 PM CDT
Nautical Twilight 4:49 AM CDT 9:20 PM CDT
Astronomical Twilight 4:10 AM CDT 9:59 PM CDT
Moon 3:39 AM CDT (6/16) 5:54 PM CDT (6/16)
Length of Visible Light 15h 20m
Length of Day
14h 22m
Waning Crescent, 8% of the Moon is Illuminated
Jun 16
Waning Crescent
Jun 19
New
Jun 26
First Quarter
Jul 3
Full
Jul 10
Last Quarter

Hourly Weather History & Observations

Time (CDT) Temp. Heat Index Dew Point Humidity Pressure Visibility Wind Dir Wind Speed Gust Speed Precip Events Conditions
12:53 AM 73.0 °F - 71.1 °F 93% 30.07 in 10.0 mi WSW 4.6 mph - 0.00 in   Clear
1:53 AM 71.1 °F - 70.0 °F 96% 30.06 in 10.0 mi ESE 3.5 mph - N/A   Clear
2:53 AM 72.0 °F - 70.0 °F 93% 30.06 in 10.0 mi Calm Calm - N/A   Clear
3:53 AM 72.0 °F - 70.0 °F 93% 30.07 in 10.0 mi WSW 5.8 mph - N/A   Partly Cloudy
4:53 AM 73.0 °F - 69.1 °F 87% 30.08 in 10.0 mi SW 5.8 mph - N/A   Mostly Cloudy
5:53 AM 72.0 °F - 69.1 °F 91% 30.11 in 10.0 mi Calm Calm - N/A   Mostly Cloudy
6:53 AM 72.0 °F - 70.0 °F 93% 30.12 in 10.0 mi ESE 3.5 mph - N/A   Clear
7:53 AM 75.9 °F - 70.0 °F 82% 30.13 in 10.0 mi SE 3.5 mph - N/A   Clear
8:53 AM 79.0 °F - 71.1 °F 77% 30.14 in 10.0 mi SSE 4.6 mph - N/A   Clear
9:53 AM 82.9 °F 87.5 °F 71.1 °F 67% 30.16 in 10.0 mi SSE 4.6 mph - N/A   Clear
10:53 AM 84.9 °F 88.2 °F 68.0 °F 57% 30.16 in 10.0 mi SSE 4.6 mph - N/A   Clear
11:53 AM 87.1 °F 91.3 °F 69.1 °F 55% 30.16 in 10.0 mi SE 4.6 mph - N/A   Clear
12:53 PM 88.0 °F 92.1 °F 69.1 °F 53% 30.15 in 10.0 mi SE 5.8 mph - N/A   Scattered Clouds
1:53 PM 87.1 °F 92.0 °F 70.0 °F 57% 30.12 in 10.0 mi SSE 5.8 mph - N/A   Partly Cloudy
2:41 PM 89.6 °F 94.7 °F 69.8 °F 52% 30.09 in 10.0 mi Variable 5.8 mph - N/A   Partly Cloudy
2:53 PM 90.0 °F 94.5 °F 69.1 °F 50% 30.10 in 10.0 mi SE 8.1 mph - N/A   Clear
3:53 PM 90.0 °F 95.4 °F 70.0 °F 52% 30.08 in 10.0 mi SE 10.4 mph - N/A   Clear
4:53 PM 82.0 °F 85.9 °F 70.0 °F 67% 30.07 in 10.0 mi ESE 9.2 mph - N/A   Mostly Cloudy
5:53 PM 84.9 °F 90.7 °F 72.0 °F 65% 30.05 in 10.0 mi ESE 11.5 mph - 0.00 in   Clear
6:53 PM 81.0 °F 85.2 °F 72.0 °F 74% 30.05 in 10.0 mi SE 3.5 mph - N/A   Clear
7:53 PM 80.1 °F 83.8 °F 72.0 °F 76% 30.05 in 10.0 mi East 3.5 mph - N/A   Clear
8:53 PM 75.9 °F - 72.0 °F 87% 30.05 in 10.0 mi ESE 4.6 mph - N/A   Clear
9:53 PM 75.0 °F - 72.0 °F 90% 30.07 in 10.0 mi North 3.5 mph - N/A   Clear
10:53 PM 73.9 °F - 72.0 °F 93% 30.06 in 10.0 mi SE 9.2 mph - N/A   Clear
11:53 PM 75.9 °F - 70.0 °F 82% 30.06 in 10.0 mi SSE 6.9 mph - N/A   Clear